Time,TemperatureF,DewpointF,PressureIn,WindDirection,WindDirectionDegrees,WindSpeedMPH,WindSpeedGustMPH,Humidity,HourlyPrecipIn,Conditions,Clouds,dailyrainin,SoftwareType,DateUTC
2013-07-09 00:03:00,63.9,55.0,30.45,NE,45,0.0,1.6,73,0.00,,,0.00,pywws,2013-07-08 23:03:00,
2013-07-09 00:09:00,63.7,55.2,30.45,SE,135,1.6,3.1,74,0.00,,,0.00,pywws,2013-07-08 23:09:00,
2013-07-09 00:14:00,63.5,55.4,30.46,NE,45,5.4,9.2,75,0.00,,,0.00,pywws,2013-07-08 23:14:00,
2013-07-09 00:20:00,63.3,55.3,30.46,NE,45,2.2,5.4,75,0.00,,,0.00,pywws,2013-07-08 23:20:00,
2013-07-09 00:25:00,63.3,55.3,30.46,North,0,3.1,5.4,75,0.00,,,0.00,pywws,2013-07-08 23:25:00,
2013-07-09 00:30:00,63.0,55.3,30.45,South,180,1.6,6.9,76,0.00,,,0.00,pywws,2013-07-08 23:30:00,
2013-07-09 00:36:00,62.8,55.1,30.46,North,0,0.7,2.2,76,0.00,,,0.00,pywws,2013-07-08 23:36:00,
2013-07-09 00:41:00,62.6,55.3,30.46,North,0,2.2,4.5,77,0.00,,,0.00,pywws,2013-07-08 23:41:00,
2013-07-09 00:46:00,62.6,55.3,30.46,NE,45,0.7,2.2,77,0.00,,,0.00,pywws,2013-07-08 23:46:00,
2013-07-09 00:52:00,62.4,55.1,30.45,West,270,0.7,2.2,77,0.00,,,0.00,pywws,2013-07-08 23:52:00,
2013-07-09 00:59:00,62.1,55.5,30.45,West,270,0.7,3.1,79,0.00,,,0.00,pywws,2013-07-08 23:59:00,
2013-07-09 01:05:00,61.9,55.6,30.46,NW,315,2.2,5.4,80,0.00,,,0.00,pywws,2013-07-09 00:05:00,
2013-07-09 01:10:00,61.9,55.6,30.45,SE,135,0.0,1.6,80,0.00,,,0.00,pywws,2013-07-09 00:10:00,
2013-07-09 01:15:00,61.7,55.5,30.46,SE,135,0.7,3.1,80,0.00,,,0.00,pywws,2013-07-09 00:15:00,
2013-07-09 01:22:00,61.5,55.3,30.45,South,180,1.6,3.1,80,0.00,,,0.00,pywws,2013-07-09 00:22:00,
2013-07-09 01:27:00,61.5,55.6,30.45,SE,135,0.7,3.8,81,0.00,,,0.00,pywws,2013-07-09 00:27:00,
2013-07-09 01:32:00,61.3,55.1,30.45,East,90,0.7,3.1,80,0.00,,,0.00,pywws,2013-07-09 00:32:00,
2013-07-09 01:37:00,61.3,55.1,30.45,NE,45,1.6,3.8,80,0.00,,,0.00,pywws,2013-07-09 00:37:00,
2013-07-09 01:42:00,61.2,55.3,30.45,SE,135,1.6,3.8,81,0.00,,,0.00,pywws,2013-07-09 00:42:00,
2013-07-09 01:47:00,61.0,55.1,30.45,South,180,0.7,2.2,81,0.00,,,0.00,pywws,2013-07-09 00:47:00,
2013-07-09 01:55:00,60.8,54.6,30.45,West,270,1.6,4.5,80,0.00,,,0.00,pywws,2013-07-09 00:55:00,
2013-07-09 02:01:00,60.4,54.6,30.45,NW,315,0.0,1.6,81,0.00,,,0.00,pywws,2013-07-09 01:01:00,
2013-07-09 02:06:00,60.3,54.4,30.45,ENE,68,0.7,3.1,81,0.00,,,0.00,pywws,2013-07-09 01:06:00,
2013-07-09 02:13:00,60.1,54.2,30.45,East,90,0.7,3.1,81,0.00,,,0.00,pywws,2013-07-09 01:13:00,
2013-07-09 02:17:00,60.1,54.2,30.44,West,270,0.0,2.2,81,0.00,,,0.00,pywws,2013-07-09 01:17:00,
2013-07-09 02:18:00,59.9,54.1,30.45,South,180,0.7,3.8,81,0.00,,,0.00,pywws,2013-07-09 01:18:00,
2013-07-09 02:25:00,59.9,53.7,30.45,East,90,0.7,5.4,80,0.00,,,0.00,pywws,2013-07-09 01:25:00,
2013-07-09 02:31:00,59.7,52.8,30.44,West,270,0.0,2.2,78,0.00,,,0.00,pywws,2013-07-09 01:31:00,
2013-07-09 02:37:00,59.7,52.5,30.45,SW,225,0.7,2.2,77,0.00,,,0.00,pywws,2013-07-09 01:37:00,
2013-07-09 02:42:00,59.5,52.0,30.44,SE,135,0.0,0.7,76,0.00,,,0.00,pywws,2013-07-09 01:42:00,
2013-07-09 02:48:00,59.2,51.6,30.44,NE,45,0.7,2.2,76,0.00,,,0.00,pywws,2013-07-09 01:48:00,
2013-07-09 02:54:00,59.0,51.4,30.44,NE,45,0.0,1.6,76,0.00,,,0.00,pywws,2013-07-09 01:54:00,
2013-07-09 02:59:00,58.8,51.3,30.44,NE,45,0.0,2.2,76,0.00,,,0.00,pywws,2013-07-09 01:59:00,
2013-07-09 03:04:00,58.6,50.7,30.44,NW,315,0.0,1.6,75,0.00,,,0.00,pywws,2013-07-09 02:04:00,
2013-07-09 03:10:00,58.5,50.6,30.43,West,270,0.7,2.2,75,0.00,,,0.00,pywws,2013-07-09 02:10:00,
2013-07-09 03:15:00,58.3,50.4,30.43,NE,45,0.7,3.1,75,0.00,,,0.00,pywws,2013-07-09 02:15:00,
2013-07-09 03:21:00,58.1,50.2,30.43,North,0,2.2,6.0,75,0.00,,,0.00,pywws,2013-07-09 02:21:00,
2013-07-09 03:27:00,57.9,50.0,30.43,NE,45,0.0,1.6,75,0.00,,,0.00,pywws,2013-07-09 02:27:00,
2013-07-09 03:35:00,57.7,50.6,30.43,NW,315,0.7,2.2,77,0.00,,,0.00,pywws,2013-07-09 02:35:00,
2013-07-09 03:40:00,57.6,50.4,30.43,SW,225,0.0,1.6,77,0.00,,,0.00,pywws,2013-07-09 02:40:00,
2013-07-09 03:46:00,57.4,50.6,30.43,North,0,0.0,1.6,78,0.00,,,0.00,pywws,2013-07-09 02:46:00,
2013-07-09 03:52:00,57.2,50.4,30.42,NW,315,0.7,3.1,78,0.00,,,0.00,pywws,2013-07-09 02:52:00,
2013-07-09 03:57:00,57.2,50.7,30.42,SW,225,0.7,2.2,79,0.00,,,0.00,pywws,2013-07-09 02:57:00,
2013-07-09 04:03:00,57.2,50.7,30.42,NW,315,1.6,3.8,79,0.00,,,0.00,pywws,2013-07-09 03:03:00,
2013-07-09 04:08:00,57.0,50.9,30.42,East,90,0.0,2.2,80,0.00,,,0.00,pywws,2013-07-09 03:08:00,
2013-07-09 04:15:00,57.0,51.2,30.43,NW,315,0.7,1.6,81,0.00,,,0.00,pywws,2013-07-09 03:15:00,
2013-07-09 04:21:00,56.8,51.4,30.42,South,180,0.0,1.6,82,0.00,,,0.00,pywws,2013-07-09 03:21:00,
2013-07-09 04:26:00,56.7,51.6,30.43,SE,135,0.7,2.2,83,0.00,,,0.00,pywws,2013-07-09 03:26:00,
2013-07-09 04:32:00,56.7,51.6,30.43,East,90,0.7,3.1,83,0.00,,,0.00,pywws,2013-07-09 03:32:00,
2013-07-09 04:37:00,56.7,51.6,30.42,North,0,1.6,5.4,83,0.00,,,0.00,pywws,2013-07-09 03:37:00,
2013-07-09 04:44:00,56.5,51.7,30.42,East,90,0.7,3.8,84,0.00,,,0.00,pywws,2013-07-09 03:44:00,
2013-07-09 04:50:00,56.3,51.5,30.42,NE,45,0.7,3.1,84,0.00,,,0.00,pywws,2013-07-09 03:50:00,
2013-07-09 04:55:00,56.3,51.5,30.42,South,180,0.0,0.7,84,0.00,,,0.00,pywws,2013-07-09 03:55:00,
2013-07-09 05:00:00,56.1,51.7,30.42,NE,45,0.0,1.6,85,0.00,,,0.00,pywws,2013-07-09 04:00:00,
2013-07-09 05:01:00,55.9,51.5,30.42,East,90,1.6,3.8,85,0.00,,,0.00,pywws,2013-07-09 04:01:00,
2013-07-09 05:02:00,55.9,51.5,30.42,North,0,0.7,3.1,85,0.00,,,0.00,pywws,2013-07-09 04:02:00,
2013-07-09 05:03:00,55.9,51.5,30.42,East,90,1.6,3.1,85,0.00,,,0.00,pywws,2013-07-09 04:03:00,
2013-07-09 05:06:00,55.9,51.5,30.42,SW,225,0.0,0.7,85,0.00,,,0.00,pywws,2013-07-09 04:06:00,
2013-07-09 05:11:00,55.8,51.6,30.42,NE,45,0.7,2.2,86,0.00,,,0.00,pywws,2013-07-09 04:11:00,
2013-07-09 05:17:00,55.8,51.6,30.42,North,0,0.0,2.2,86,0.00,,,0.00,pywws,2013-07-09 04:17:00,
2013-07-09 05:22:00,55.8,51.6,30.42,South,180,0.7,3.1,86,0.00,,,0.00,pywws,2013-07-09 04:22:00,
2013-07-09 05:27:00,55.8,51.6,30.42,South,180,0.7,2.2,86,0.00,,,0.00,pywws,2013-07-09 04:27:00,
2013-07-09 05:32:00,55.8,51.6,30.42,NE,45,1.6,3.8,86,0.00,,,0.00,pywws,2013-07-09 04:32:00,
2013-07-09 05:37:00,55.8,51.3,30.42,NE,45,1.6,3.1,85,0.00,,,0.00,pywws,2013-07-09 04:37:00,
2013-07-09 05:43:00,55.8,51.3,30.42,NW,315,0.7,2.2,85,0.00,,,0.00,pywws,2013-07-09 04:43:00,
2013-07-09 05:48:00,55.8,51.3,30.42,NE,45,1.6,3.8,85,0.00,,,0.00,pywws,2013-07-09 04:48:00,
2013-07-09 05:54:00,55.8,51.3,30.42,NE,45,0.7,2.2,85,0.00,,,0.00,pywws,2013-07-09 04:54:00,
2013-07-09 05:59:00,55.9,51.5,30.42,NW,315,0.7,1.6,85,0.00,,,0.00,pywws,2013-07-09 04:59:00,
2013-07-09 06:05:00,55.9,51.5,30.42,NE,45,1.6,3.8,85,0.00,,,0.00,pywws,2013-07-09 05:05:00,
2013-07-09 06:10:00,55.9,51.5,30.42,North,0,0.7,3.1,85,0.00,,,0.00,pywws,2013-07-09 05:10:00,
2013-07-09 06:16:00,56.1,51.4,30.42,NE,45,1.6,4.5,84,0.00,,,0.00,pywws,2013-07-09 05:16:00,
2013-07-09 06:22:00,56.3,51.5,30.42,NE,45,1.6,3.8,84,0.00,,,0.00,pywws,2013-07-09 05:22:00,
2013-07-09 06:27:00,56.5,51.4,30.43,NW,315,0.7,2.2,83,0.00,,,0.00,pywws,2013-07-09 05:27:00,
2013-07-09 06:32:00,56.7,51.6,30.43,NW,315,1.6,3.8,83,0.00,,,0.00,pywws,2013-07-09 05:32:00,
2013-07-09 06:37:00,56.8,51.7,30.42,NE,45,0.0,2.2,83,0.00,,,0.00,pywws,2013-07-09 05:37:00,
2013-07-09 06:42:00,56.8,51.4,30.42,NE,45,1.6,3.1,82,0.00,,,0.00,pywws,2013-07-09 05:42:00,
2013-07-09 06:47:00,57.7,52.3,30.42,SE,135,0.0,2.2,82,0.00,,,0.00,pywws,2013-07-09 05:47:00,
2013-07-09 06:53:00,60.1,53.2,30.42,East,90,0.7,5.4,78,0.00,,,0.00,pywws,2013-07-09 05:53:00,
2013-07-09 06:58:00,61.7,52.2,30.43,East,90,0.7,4.5,71,0.00,,,0.00,pywws,2013-07-09 05:58:00,
2013-07-09 07:04:00,62.1,51.8,30.42,SW,225,0.7,3.1,69,0.00,,,0.00,pywws,2013-07-09 06:04:00,
2013-07-09 07:10:00,63.0,51.8,30.42,NW,315,0.7,2.2,67,0.00,,,0.00,pywws,2013-07-09 06:10:00,
2013-07-09 07:15:00,63.0,51.0,30.42,North,0,2.2,3.8,65,0.00,,,0.00,pywws,2013-07-09 06:15:00,
2013-07-09 07:21:00,63.0,51.4,30.42,East,90,1.6,3.8,66,0.00,,,0.00,pywws,2013-07-09 06:21:00,
2013-07-09 07:26:00,62.8,50.8,30.42,SW,225,1.6,6.0,65,0.00,,,0.00,pywws,2013-07-09 06:26:00,
2013-07-09 07:32:00,63.0,51.0,30.42,NNE,23,0.7,3.1,65,0.00,,,0.00,pywws,2013-07-09 06:32:00,
2013-07-09 07:37:00,63.7,51.3,30.42,West,270,1.6,3.8,64,0.00,,,0.00,pywws,2013-07-09 06:37:00,
2013-07-09 07:42:00,63.7,50.8,30.42,North,0,1.6,3.1,63,0.00,,,0.00,pywws,2013-07-09 06:42:00,
2013-07-09 07:47:00,63.3,50.9,30.42,SW,225,0.0,2.2,64,0.00,,,0.00,pywws,2013-07-09 06:47:00,
2013-07-09 07:53:00,62.6,50.7,30.42,SW,225,1.6,3.8,65,0.00,,,0.00,pywws,2013-07-09 06:53:00,
2013-07-09 07:58:00,62.1,50.6,30.42,NNE,23,3.1,6.0,66,0.00,,,0.00,pywws,2013-07-09 06:58:00,
2013-07-09 08:04:00,61.5,50.5,30.42,NW,315,2.2,4.5,67,0.00,,,0.00,pywws,2013-07-09 07:04:00,
2013-07-09 08:10:00,61.9,50.8,30.42,SE,135,0.7,3.1,67,0.00,,,0.00,pywws,2013-07-09 07:10:00,
2013-07-09 08:15:00,62.1,51.0,30.41,NW,315,2.2,5.4,67,0.00,,,0.00,pywws,2013-07-09 07:15:00,
2013-07-09 08:21:00,62.6,50.2,30.41,East,90,2.2,4.5,64,0.00,,,0.00,pywws,2013-07-09 07:21:00,
2013-07-09 08:26:00,63.9,50.6,30.41,West,270,3.1,5.4,62,0.00,,,0.00,pywws,2013-07-09 07:26:00,
2013-07-09 08:32:00,65.8,51.1,30.41,North,0,0.7,2.2,59,0.00,,,0.00,pywws,2013-07-09 07:32:00,
2013-07-09 08:38:00,68.4,50.0,30.41,NW,315,1.6,3.1,52,0.00,,,0.00,pywws,2013-07-09 07:38:00,
2013-07-09 08:43:00,69.8,50.3,30.41,SW,225,1.6,3.1,50,0.00,,,0.00,pywws,2013-07-09 07:43:00,
2013-07-09 08:52:00,70.2,49.0,30.41,NE,45,0.7,3.1,47,0.00,,,0.00,pywws,2013-07-09 07:52:00,
2013-07-09 08:58:00,70.7,47.7,30.41,South,180,3.8,8.3,44,0.00,,,0.00,pywws,2013-07-09 07:58:00,
2013-07-09 09:03:00,70.5,48.7,30.41,SW,225,1.6,4.5,46,0.00,,,0.00,pywws,2013-07-09 08:03:00,
2013-07-09 09:09:00,71.2,47.6,30.41,East,90,2.2,4.5,43,0.00,,,0.00,pywws,2013-07-09 08:09:00,
2013-07-09 09:15:00,72.0,48.2,30.41,East,90,3.1,3.8,43,0.00,,,0.00,pywws,2013-07-09 08:15:00,
2013-07-09 09:20:00,73.2,48.7,30.40,NW,315,2.2,4.5,42,0.00,,,0.00,pywws,2013-07-09 08:20:00,
2013-07-09 09:26:00,74.3,47.0,30.40,NW,315,3.1,6.0,38,0.00,,,0.00,pywws,2013-07-09 08:26:00,
2013-07-09 09:31:00,74.7,46.6,30.40,North,0,2.2,3.8,37,0.00,,,0.00,pywws,2013-07-09 08:31:00,
2013-07-09 09:36:00,74.7,45.9,30.40,NE,45,2.2,4.5,36,0.00,,,0.00,pywws,2013-07-09 08:36:00,
2013-07-09 09:42:00,74.7,46.6,30.40,West,270,0.7,2.2,37,0.00,,,0.00,pywws,2013-07-09 08:42:00,
2013-07-09 09:47:00,75.0,45.5,30.40,NE,45,1.6,3.1,35,0.00,,,0.00,pywws,2013-07-09 08:47:00,
2013-07-09 09:52:00,75.6,45.2,30.39,East,90,2.2,5.4,34,0.00,,,0.00,pywws,2013-07-09 08:52:00,
2013-07-09 10:01:00,76.1,44.9,30.40,North,0,0.7,2.2,33,0.00,,,0.00,pywws,2013-07-09 09:01:00,
2013-07-09 10:06:00,78.1,43.2,30.40,NE,45,2.2,4.5,29,0.00,,,0.00,pywws,2013-07-09 09:06:00,
2013-07-09 10:11:00,77.9,44.8,30.40,NW,315,1.6,3.8,31,0.00,,,0.00,pywws,2013-07-09 09:11:00,
2013-07-09 10:17:00,78.3,41.5,30.40,NW,315,1.6,5.4,27,0.00,,,0.00,pywws,2013-07-09 09:17:00,
2013-07-09 10:22:00,78.6,38.8,30.40,SE,135,3.8,6.0,24,0.00,,,0.00,pywws,2013-07-09 09:22:00,
2013-07-09 10:29:00,78.6,40.8,30.39,NW,315,1.6,3.8,26,0.00,,,0.00,pywws,2013-07-09 09:29:00,
2013-07-09 10:34:00,79.3,39.4,30.40,North,0,2.2,3.8,24,0.00,,,0.00,pywws,2013-07-09 09:34:00,
2013-07-09 10:39:00,79.3,37.2,30.39,NW,315,4.5,7.6,22,0.00,,,0.00,pywws,2013-07-09 09:39:00,
2013-07-09 10:45:00,79.2,39.2,30.39,SE,135,3.1,6.9,24,0.00,,,0.00,pywws,2013-07-09 09:45:00,
2013-07-09 10:50:00,80.1,38.9,30.39,North,0,2.2,3.8,23,0.00,,,0.00,pywws,2013-07-09 09:50:00,
2013-07-09 10:56:00,80.4,38.1,30.39,East,90,1.6,3.8,22,0.00,,,0.00,pywws,2013-07-09 09:56:00,
2013-07-09 11:02:00,81.3,36.4,30.39,NE,45,3.1,6.0,20,0.00,,,0.00,pywws,2013-07-09 10:02:00,
2013-07-09 11:07:00,81.3,37.6,30.39,East,90,0.7,2.2,21,0.00,,,0.00,pywws,2013-07-09 10:07:00,
2013-07-09 11:12:00,81.3,35.1,30.39,NE,45,1.6,5.4,19,0.00,,,0.00,pywws,2013-07-09 10:12:00,
2013-07-09 11:17:00,80.6,33.2,30.39,East,90,3.1,5.4,18,0.00,,,0.00,pywws,2013-07-09 10:17:00,
2013-07-09 11:22:00,80.2,35.5,30.39,NE,45,1.6,3.8,20,0.00,,,0.00,pywws,2013-07-09 10:22:00,
2013-07-09 11:32:00,80.4,36.9,30.39,NE,45,2.2,5.4,21,0.00,,,0.00,pywws,2013-07-09 10:32:00,
2013-07-09 11:37:00,80.8,36.0,30.39,North,0,1.6,6.0,20,0.00,,,0.00,pywws,2013-07-09 10:37:00,
2013-07-09 11:42:00,81.3,36.4,30.39,West,270,2.2,9.2,20,0.00,,,0.00,pywws,2013-07-09 10:42:00,
2013-07-09 11:48:00,81.7,37.9,30.38,North,0,2.2,3.8,21,0.00,,,0.00,pywws,2013-07-09 10:48:00,
2013-07-09 11:54:00,82.2,38.4,30.38,West,270,1.6,4.5,21,0.00,,,0.00,pywws,2013-07-09 10:54:00,
2013-07-09 11:59:00,82.9,39.0,30.38,East,90,1.6,3.1,21,0.00,,,0.00,pywws,2013-07-09 10:59:00,
2013-07-09 12:04:00,82.6,36.1,30.38,North,0,5.4,10.7,19,0.00,,,0.00,pywws,2013-07-09 11:04:00,
2013-07-09 12:10:00,82.6,37.4,30.37,NE,45,3.1,6.0,20,0.00,,,0.00,pywws,2013-07-09 11:10:00,
2013-07-09 12:15:00,82.6,36.1,30.37,NNE,23,3.1,9.8,19,0.00,,,0.00,pywws,2013-07-09 11:15:00,
2013-07-09 12:21:00,83.5,34.1,30.37,West,270,2.2,4.5,17,0.00,,,0.00,pywws,2013-07-09 11:21:00,
2013-07-09 12:26:00,83.8,37.2,30.37,North,0,1.6,3.1,19,0.00,,,0.00,pywws,2013-07-09 11:26:00,
2013-07-09 12:32:00,83.8,37.2,30.37,NE,45,3.1,6.9,19,0.00,,,0.00,pywws,2013-07-09 11:32:00,
2013-07-09 12:37:00,83.8,38.5,30.37,NW,315,2.2,3.8,20,0.00,,,0.00,pywws,2013-07-09 11:37:00,
2013-07-09 12:42:00,84.4,36.2,30.36,West,270,1.6,3.1,18,0.00,,,0.00,pywws,2013-07-09 11:42:00,
2013-07-09 12:48:00,84.7,32.0,30.36,East,90,1.6,3.1,15,0.00,,,0.00,pywws,2013-07-09 11:48:00,
2013-07-09 12:54:00,84.7,32.0,30.36,SW,225,1.6,3.8,15,0.00,,,0.00,pywws,2013-07-09 11:54:00,
2013-07-09 12:59:00,84.7,32.0,30.36,South,180,1.6,5.4,15,0.00,,,0.00,pywws,2013-07-09 11:59:00,
2013-07-09 13:05:00,85.5,29.0,30.35,East,90,2.2,5.4,13,0.00,,,0.00,pywws,2013-07-09 12:05:00,
2013-07-09 13:10:00,84.7,28.4,30.35,North,0,3.8,8.3,13,0.00,,,0.00,pywws,2013-07-09 12:10:00,
2013-07-09 13:16:00,84.4,31.7,30.35,South,180,0.7,3.1,15,0.00,,,0.00,pywws,2013-07-09 12:16:00,
2013-07-09 13:22:00,84.9,26.6,30.35,South,180,1.6,4.5,12,0.00,,,0.00,pywws,2013-07-09 12:22:00,
2013-07-09 13:27:00,84.4,28.2,30.35,East,90,2.2,6.0,13,0.00,,,0.00,pywws,2013-07-09 12:27:00,
2013-07-09 13:32:00,84.7,33.6,30.35,East,90,0.7,3.1,16,0.00,,,0.00,pywws,2013-07-09 12:32:00,
2013-07-09 13:37:00,84.9,32.1,30.35,NW,315,1.6,5.4,15,0.00,,,0.00,pywws,2013-07-09 12:37:00,
2013-07-09 13:42:00,85.6,32.7,30.35,NNW,338,0.7,2.2,15,0.00,,,0.00,pywws,2013-07-09 12:42:00,
2013-07-09 13:48:00,86.9,21.3,30.34,NE,45,1.6,3.8,9,0.00,,,0.00,pywws,2013-07-09 12:48:00,
2013-07-09 13:54:00,86.7,28.0,30.34,North,0,1.6,3.8,12,0.00,,,0.00,pywws,2013-07-09 12:54:00,
2013-07-09 13:59:00,86.0,27.5,30.34,SE,135,1.6,3.1,12,0.00,,,0.00,pywws,2013-07-09 12:59:00,
2013-07-09 14:05:00,86.9,28.2,30.34,West,270,1.6,3.1,12,0.00,,,0.00,pywws,2013-07-09 13:05:00,
2013-07-09 14:10:00,86.9,21.3,30.34,SE,135,3.8,9.2,9,0.00,,,0.00,pywws,2013-07-09 13:10:00,
2013-07-09 14:16:00,87.4,21.7,30.34,East,90,1.6,3.8,9,0.00,,,0.00,pywws,2013-07-09 13:16:00,
2013-07-09 14:22:00,87.8,24.5,30.33,West,270,0.7,3.8,10,0.00,,,0.00,pywws,2013-07-09 13:22:00,
2013-07-09 14:27:00,87.8,21.9,30.33,NW,315,3.1,6.0,9,0.00,,,0.00,pywws,2013-07-09 13:27:00,
2013-07-09 14:32:00,87.8,21.9,30.33,North,0,2.2,4.5,9,0.00,,,0.00,pywws,2013-07-09 13:32:00,
2013-07-09 14:38:00,87.3,24.0,30.33,South,180,2.2,5.4,10,0.00,,,0.00,pywws,2013-07-09 13:38:00,
2013-07-09 14:43:00,87.8,26.7,30.33,NW,315,1.6,3.8,11,0.00,,,0.00,pywws,2013-07-09 13:43:00,
2013-07-09 14:49:00,88.3,27.2,30.33,East,90,1.6,6.0,11,0.00,,,0.00,pywws,2013-07-09 13:49:00,
2013-07-09 14:55:00,88.2,27.0,30.33,NE,45,3.1,10.7,11,0.00,,,0.00,pywws,2013-07-09 13:55:00,
2013-07-09 15:01:00,87.4,21.7,30.33,East,90,3.8,6.9,9,0.00,,,0.00,pywws,2013-07-09 14:01:00,
2013-07-09 15:06:00,87.4,28.6,30.33,East,90,1.6,4.5,12,0.00,,,0.00,pywws,2013-07-09 14:06:00,
2013-07-09 15:12:00,87.4,26.5,30.33,NE,45,0.7,3.1,11,0.00,,,0.00,pywws,2013-07-09 14:12:00,
2013-07-09 15:17:00,88.0,22.1,30.32,NE,45,3.8,6.0,9,0.00,,,0.00,pywws,2013-07-09 14:17:00,
2013-07-09 15:22:00,87.8,21.9,30.32,South,180,1.6,4.5,9,0.00,,,0.00,pywws,2013-07-09 14:22:00,
2013-07-09 15:29:00,88.0,24.6,30.31,SSE,158,1.6,5.4,10,0.00,,,0.00,pywws,2013-07-09 14:29:00,
2013-07-09 15:34:00,87.8,28.9,30.31,NE,45,2.2,5.4,12,0.00,,,0.00,pywws,2013-07-09 14:34:00,
2013-07-09 15:40:00,88.2,27.0,30.30,East,90,0.7,1.6,11,0.00,,,0.00,pywws,2013-07-09 14:40:00,
2013-07-09 15:46:00,88.7,29.6,30.30,SW,225,2.2,5.4,12,0.00,,,0.00,pywws,2013-07-09 14:46:00,
2013-07-09 15:51:00,88.5,27.3,30.30,East,90,2.2,9.8,11,0.00,,,0.00,pywws,2013-07-09 14:51:00,
2013-07-09 15:57:00,88.7,29.6,30.30,North,0,2.2,6.0,12,0.00,,,0.00,pywws,2013-07-09 14:57:00,
2013-07-09 15:58:00,88.7,29.6,30.30,East,90,0.7,2.2,12,0.00,,,0.00,pywws,2013-07-09 14:58:00,
2013-07-09 16:04:00,89.1,27.7,30.29,East,90,1.6,4.5,11,0.00,,,0.00,pywws,2013-07-09 15:04:00,
2013-07-09 16:09:00,89.1,27.7,30.29,NE,45,2.2,5.4,11,0.00,,,0.00,pywws,2013-07-09 15:09:00,
2013-07-09 16:14:00,88.9,27.6,30.29,North,0,4.5,6.9,11,0.00,,,0.00,pywws,2013-07-09 15:14:00,
2013-07-09 16:20:00,89.1,31.8,30.29,SW,225,1.6,4.5,13,0.00,,,0.00,pywws,2013-07-09 15:20:00,
2013-07-09 16:26:00,89.2,31.9,30.29,SW,225,2.2,4.5,13,0.00,,,0.00,pywws,2013-07-09 15:26:00,
2013-07-09 16:31:00,89.6,28.1,30.29,SE,135,3.1,6.0,11,0.00,,,0.00,pywws,2013-07-09 15:31:00,
2013-07-09 16:37:00,88.7,29.6,30.29,SW,225,0.7,2.2,12,0.00,,,0.00,pywws,2013-07-09 15:37:00,
2013-07-09 16:42:00,88.0,31.0,30.29,NE,45,2.2,6.0,13,0.00,,,0.00,pywws,2013-07-09 15:42:00,
2013-07-09 16:47:00,87.3,33.9,30.29,South,180,3.1,5.4,15,0.00,,,0.00,pywws,2013-07-09 15:47:00,
2013-07-09 16:52:00,88.0,31.0,30.28,SE,135,1.6,3.8,13,0.00,,,0.00,pywws,2013-07-09 15:52:00,
2013-07-09 16:58:00,87.4,32.4,30.29,NE,45,3.1,6.0,14,0.00,,,0.00,pywws,2013-07-09 15:58:00,
2013-07-09 17:03:00,87.4,30.5,30.29,South,180,0.7,2.2,13,0.00,,,0.00,pywws,2013-07-09 16:03:00,
2013-07-09 17:09:00,87.6,32.5,30.29,NW,315,1.6,6.0,14,0.00,,,0.00,pywws,2013-07-09 16:09:00,
2013-07-09 17:15:00,87.3,30.4,30.29,SW,225,1.6,4.5,13,0.00,,,0.00,pywws,2013-07-09 16:15:00,
2013-07-09 17:20:00,87.6,32.5,30.28,NW,315,3.1,3.8,14,0.00,,,0.00,pywws,2013-07-09 16:20:00,
2013-07-09 17:26:00,87.6,32.5,30.28,North,0,1.6,6.0,14,0.00,,,0.00,pywws,2013-07-09 16:26:00,
2013-07-09 17:31:00,87.8,32.7,30.27,NE,45,1.6,3.8,14,0.00,,,0.00,pywws,2013-07-09 16:31:00,
2013-07-09 17:37:00,87.4,35.7,30.28,North,0,3.1,6.0,16,0.00,,,0.00,pywws,2013-07-09 16:37:00,
2013-07-09 17:42:00,86.9,35.3,30.27,North,0,1.6,3.8,16,0.00,,,0.00,pywws,2013-07-09 16:42:00,
2013-07-09 17:48:00,86.9,33.7,30.27,NE,45,3.1,6.9,15,0.00,,,0.00,pywws,2013-07-09 16:48:00,
2013-07-09 17:54:00,86.5,36.5,30.27,North,0,0.7,1.6,17,0.00,,,0.00,pywws,2013-07-09 16:54:00,
2013-07-09 17:59:00,86.4,37.8,30.27,SE,135,0.7,2.2,18,0.00,,,0.00,pywws,2013-07-09 16:59:00,
2013-07-09 18:05:00,85.6,38.6,30.27,North,0,0.7,3.1,19,0.00,,,0.00,pywws,2013-07-09 17:05:00,
2013-07-09 18:11:00,84.6,41.5,30.27,NE,45,0.7,3.1,22,0.00,,,0.00,pywws,2013-07-09 17:11:00,
2013-07-09 18:16:00,84.2,42.4,30.26,SE,135,0.7,3.8,23,0.00,,,0.00,pywws,2013-07-09 17:16:00,
2013-07-09 18:22:00,83.8,43.2,30.27,West,270,2.2,4.5,24,0.00,,,0.00,pywws,2013-07-09 17:22:00,
2013-07-09 18:27:00,83.3,42.7,30.26,SE,135,1.6,5.4,24,0.00,,,0.00,pywws,2013-07-09 17:27:00,
2013-07-09 18:32:00,82.9,43.5,30.26,SW,225,0.7,2.2,25,0.00,,,0.00,pywws,2013-07-09 17:32:00,
2013-07-09 18:37:00,82.4,43.0,30.27,East,90,1.6,3.1,25,0.00,,,0.00,pywws,2013-07-09 17:37:00,
2013-07-09 18:42:00,81.9,43.6,30.26,SW,225,1.6,3.8,26,0.00,,,0.00,pywws,2013-07-09 17:42:00,
2013-07-09 18:47:00,80.2,44.2,30.26,East,90,0.7,2.2,28,0.00,,,0.00,pywws,2013-07-09 17:47:00,
2013-07-09 18:53:00,79.2,44.1,30.26,SE,135,3.1,5.4,29,0.00,,,0.00,pywws,2013-07-09 17:53:00,
2013-07-09 18:58:00,78.8,45.6,30.27,East,90,1.6,3.8,31,0.00,,,0.00,pywws,2013-07-09 17:58:00,
2013-07-09 19:04:00,78.4,45.3,30.26,NE,45,2.2,4.5,31,0.00,,,0.00,pywws,2013-07-09 18:04:00,
2013-07-09 19:10:00,78.1,45.8,30.26,South,180,1.6,3.1,32,0.00,,,0.00,pywws,2013-07-09 18:10:00,
2013-07-09 19:15:00,77.4,46.0,30.27,NE,45,2.2,5.4,33,0.00,,,0.00,pywws,2013-07-09 18:15:00,
2013-07-09 19:21:00,76.8,45.5,30.27,North,0,2.2,5.4,33,0.00,,,0.00,pywws,2013-07-09 18:21:00,
2013-07-09 19:27:00,76.3,45.8,30.27,SE,135,2.2,5.4,34,0.00,,,0.00,pywws,2013-07-09 18:27:00,
2013-07-09 19:32:00,75.9,46.3,30.27,SW,225,1.6,2.2,35,0.00,,,0.00,pywws,2013-07-09 18:32:00,
2013-07-09 19:37:00,75.6,46.0,30.27,North,0,3.1,6.0,35,0.00,,,0.00,pywws,2013-07-09 18:37:00,
2013-07-09 19:42:00,75.2,45.7,30.27,South,180,3.1,6.9,35,0.00,,,0.00,pywws,2013-07-09 18:42:00,
2013-07-09 19:48:00,74.8,46.8,30.27,South,180,1.6,2.2,37,0.00,,,0.00,pywws,2013-07-09 18:48:00,
2013-07-09 19:54:00,74.5,46.5,30.27,NW,315,2.2,3.8,37,0.00,,,0.00,pywws,2013-07-09 18:54:00,
2013-07-09 19:59:00,74.1,46.2,30.27,SE,135,2.2,5.4,37,0.00,,,0.00,pywws,2013-07-09 18:59:00,
2013-07-09 20:05:00,73.8,45.8,30.27,SE,135,1.6,4.5,37,0.00,,,0.00,pywws,2013-07-09 19:05:00,
2013-07-09 20:10:00,73.2,46.1,30.27,South,180,1.6,2.2,38,0.00,,,0.00,pywws,2013-07-09 19:10:00,
2013-07-09 20:16:00,72.9,45.8,30.27,SE,135,0.7,1.6,38,0.00,,,0.00,pywws,2013-07-09 19:16:00,
2013-07-09 20:22:00,72.5,46.1,30.27,SE,135,0.0,1.6,39,0.00,,,0.00,pywws,2013-07-09 19:22:00,
2013-07-09 20:27:00,72.0,45.6,30.27,NE,45,3.1,5.4,39,0.00,,,0.00,pywws,2013-07-09 19:27:00,
2013-07-09 20:32:00,71.8,46.8,30.28,North,0,1.6,3.8,41,0.00,,,0.00,pywws,2013-07-09 19:32:00,
2013-07-09 20:37:00,71.4,46.5,30.28,NE,45,0.0,1.6,41,0.00,,,0.00,pywws,2013-07-09 19:37:00,
2013-07-09 20:42:00,71.1,46.8,30.28,NE,45,2.2,6.0,42,0.00,,,0.00,pywws,2013-07-09 19:42:00,
2013-07-09 20:47:00,70.7,47.7,30.28,East,90,1.6,4.5,44,0.00,,,0.00,pywws,2013-07-09 19:47:00,
2013-07-09 20:53:00,70.3,48.0,30.28,East,90,2.2,3.8,45,0.00,,,0.00,pywws,2013-07-09 19:53:00,
2013-07-09 20:58:00,70.0,47.7,30.28,SE,135,0.7,3.1,45,0.00,,,0.00,pywws,2013-07-09 19:58:00,
2013-07-09 21:03:00,69.6,47.3,30.28,East,90,1.6,3.8,45,0.00,,,0.00,pywws,2013-07-09 20:03:00,
2013-07-09 21:09:00,69.1,47.4,30.28,SE,135,0.7,3.8,46,0.00,,,0.00,pywws,2013-07-09 20:09:00,
2013-07-09 21:14:00,68.7,47.1,30.28,West,270,0.0,0.7,46,0.00,,,0.00,pywws,2013-07-09 20:14:00,
2013-07-09 21:16:00,68.5,47.5,30.28,SE,135,2.2,3.8,47,0.00,,,0.00,pywws,2013-07-09 20:16:00,
2013-07-09 21:22:00,68.2,47.2,30.28,NE,45,0.7,1.6,47,0.00,,,0.00,pywws,2013-07-09 20:22:00,
2013-07-09 21:27:00,67.8,47.4,30.28,SE,135,1.6,3.8,48,0.00,,,0.00,pywws,2013-07-09 20:27:00,
2013-07-09 21:32:00,67.6,47.2,30.29,East,90,0.0,1.6,48,0.00,,,0.00,pywws,2013-07-09 20:32:00,
2013-07-09 21:37:00,67.3,47.5,30.29,South,180,0.7,3.8,49,0.00,,,0.00,pywws,2013-07-09 20:37:00,
2013-07-09 21:43:00,66.7,47.5,30.29,East,90,0.0,2.2,50,0.00,,,0.00,pywws,2013-07-09 20:43:00,
2013-07-09 21:48:00,66.4,47.7,30.29,ENE,68,1.6,3.8,51,0.00,,,0.00,pywws,2013-07-09 20:48:00,
2013-07-09 21:54:00,66.2,48.0,30.29,SE,135,2.2,4.5,52,0.00,,,0.00,pywws,2013-07-09 20:54:00,
2013-07-09 21:59:00,65.8,48.7,30.29,East,90,1.6,4.5,54,0.00,,,0.00,pywws,2013-07-09 20:59:00,
2013-07-09 22:05:00,65.7,48.6,30.29,South,180,0.7,2.2,54,0.00,,,0.00,pywws,2013-07-09 21:05:00,
2013-07-09 22:10:00,65.3,48.2,30.29,SE,135,0.7,1.6,54,0.00,,,0.00,pywws,2013-07-09 21:10:00,
2013-07-09 22:16:00,64.9,47.9,30.29,East,90,0.0,0.0,54,0.00,,,0.00,pywws,2013-07-09 21:16:00,
2013-07-09 22:22:00,64.4,47.9,30.29,East,90,0.0,0.7,55,0.00,,,0.00,pywws,2013-07-09 21:22:00,
2013-07-09 22:27:00,64.0,47.5,30.29,SE,135,0.0,0.7,55,0.00,,,0.00,pywws,2013-07-09 21:27:00,
2013-07-09 22:32:00,63.9,47.9,30.30,West,270,0.0,1.6,56,0.00,,,0.00,pywws,2013-07-09 21:32:00,
2013-07-09 22:37:00,63.7,48.6,30.29,SE,135,0.7,3.1,58,0.00,,,0.00,pywws,2013-07-09 21:37:00,
2013-07-09 22:42:00,63.7,48.6,30.30,NE,45,0.7,3.1,58,0.00,,,0.00,pywws,2013-07-09 21:42:00,
2013-07-09 22:48:00,63.5,48.9,30.30,NE,45,0.7,4.5,59,0.00,,,0.00,pywws,2013-07-09 21:48:00,
2013-07-09 22:54:00,63.3,48.7,30.30,East,90,0.0,2.2,59,0.00,,,0.00,pywws,2013-07-09 21:54:00,
2013-07-09 22:59:00,63.0,48.4,30.29,NE,45,0.7,2.2,59,0.00,,,0.00,pywws,2013-07-09 21:59:00,
2013-07-09 23:05:00,62.6,48.5,30.29,North,0,0.7,1.6,60,0.00,,,0.00,pywws,2013-07-09 22:05:00,
2013-07-09 23:10:00,62.4,48.8,30.30,South,180,0.0,1.6,61,0.00,,,0.00,pywws,2013-07-09 22:10:00,
2013-07-09 23:16:00,62.1,48.9,30.29,SE,135,0.0,0.7,62,0.00,,,0.00,pywws,2013-07-09 22:16:00,
2013-07-09 23:22:00,61.9,49.1,30.29,South,180,0.0,1.6,63,0.00,,,0.00,pywws,2013-07-09 22:22:00,
2013-07-09 23:27:00,61.9,50.0,30.30,East,90,1.6,2.2,65,0.00,,,0.00,pywws,2013-07-09 22:27:00,
2013-07-09 23:32:00,61.7,50.2,30.30,SE,135,0.7,2.2,66,0.00,,,0.00,pywws,2013-07-09 22:32:00,
2013-07-09 23:37:00,61.5,50.1,30.30,SE,135,0.0,0.7,66,0.00,,,0.00,pywws,2013-07-09 22:37:00,
2013-07-09 23:42:00,61.3,49.9,30.30,South,180,0.7,1.6,66,0.00,,,0.00,pywws,2013-07-09 22:42:00,
2013-07-09 23:48:00,61.2,50.5,30.30,SE,135,0.0,1.6,68,0.00,,,0.00,pywws,2013-07-09 22:48:00,
2013-07-09 23:54:00,61.0,49.9,30.30,SE,135,0.0,1.6,67,0.00,,,0.00,pywws,2013-07-09 22:54:00,
2013-07-09 23:59:00,60.6,50.4,30.30,North,0,0.7,2.2,69,0.00,,,0.00,pywws,2013-07-09 22:59:00,